Jaffrey, NH

9:08 PM EDT on May 24, 2017 (GMT -0400)
Jaffrey Airport-Silver Ranch

Weather History for KAFN - April, 2013

Change the Weather History Date:

Saturday, April 27, 2013

  Actual Average Record
Temperature  
Mean Temperature 46 °F -  
Max Temperature 64 °F 58 °F 73 °F (2011)
Min Temperature 30 °F 34 °F 27 °F (2001)
Degree Days  
Heating Degree Days 19    
Moisture  
Dew Point 31 °F    
Average Humidity 56    
Maximum Humidity 92    
Minimum Humidity 21    
Precipitation  
Precipitation 0.00 in - - ()
Sea Level Pressure  
Sea Level Pressure 30.38 in    
Wind  
Wind Speed 1 mph (South)    
Max Wind Speed 6 mph    
Max Gust Speed -    
Visibility 10 miles    
Events      
Averages and records for this station are not official NWS values.
T = Trace of Precipitation, MM = Missing Value Source: NWS Daily Summary

Daily Weather History Graph

Daily Weather History Graph

Search for Another Location

Airport or City:

Trip Planner

Search our weather history database for the weather conditions in past years. The results will help you decide how hot, cold, wet, or windy it might be!

Date:

Astronomy

Apr. 27, 2013 Rise Set
Actual Time 5:47 AM EDT 7:44 PM EDT
Civil Twilight 5:17 AM EDT 8:14 PM EDT
Nautical Twilight 4:39 AM EDT 8:52 PM EDT
Astronomical Twilight 3:59 AM EDT 9:33 PM EDT
Moon 10:13 PM EDT (4/27) 7:01 AM EDT (4/27)
Length of Visible Light 14h 57m
Length of Day
13h 56m
Waning Gibbous, 95% of the Moon is Illuminated
Apr 27
Waning Gibbous
May 2
Last Quarter
May 9
New
May 18
First Quarter
May 25
Full

Hourly Weather History & Observations

Time (EDT) Temp. Dew Point Humidity Pressure Visibility Wind Dir Wind Speed Gust Speed Precip Events Conditions
12:52 AM 39.0 °F 34.0 °F 82% 30.45 in 10.0 mi Calm Calm - N/A   Clear
1:52 AM 36.0 °F 32.0 °F 86% 30.45 in 10.0 mi Calm Calm - N/A   Clear
2:52 AM 34.0 °F 32.0 °F 92% 30.44 in 10.0 mi Calm Calm - N/A   Clear
3:52 AM 32.0 °F 30.0 °F 92% 30.43 in 10.0 mi Calm Calm - N/A   Clear
4:52 AM 30.9 °F 28.9 °F 92% 30.43 in 9.0 mi Calm Calm - N/A   Clear
5:52 AM 30.0 °F 28.0 °F 92% 30.43 in 6.0 mi Calm Calm - N/A   Clear
6:52 AM 30.9 °F 28.9 °F 92% 30.45 in 10.0 mi Calm Calm - N/A   Clear
7:52 AM 39.0 °F 35.1 °F 86% 30.44 in 10.0 mi Calm Calm - N/A   Clear
8:52 AM 48.9 °F 33.1 °F 54% 30.43 in 10.0 mi Variable 4.6 mph - N/A   Clear
9:52 AM 53.1 °F 32.0 °F 45% 30.43 in 10.0 mi Calm Calm - N/A   Clear
10:52 AM 55.0 °F 33.1 °F 43% 30.42 in 10.0 mi Calm Calm - N/A   Clear
11:52 AM 57.0 °F 30.0 °F 36% 30.41 in 10.0 mi Variable 4.6 mph - N/A   Clear
12:52 PM 57.0 °F 30.9 °F 37% 30.39 in 10.0 mi West 3.5 mph - N/A   Mostly Cloudy
1:52 PM 59.0 °F 28.9 °F 32% 30.37 in 10.0 mi Variable 3.5 mph - N/A   Mostly Cloudy
2:52 PM 61.0 °F 28.0 °F 29% 30.35 in 10.0 mi Variable 3.5 mph - N/A   Scattered Clouds
3:52 PM 62.1 °F 26.1 °F 25% 30.32 in 10.0 mi Calm Calm - N/A   Clear
4:52 PM 62.1 °F 21.9 °F 21% 30.31 in 10.0 mi Variable 5.8 mph - N/A   Mostly Cloudy
5:52 PM 62.1 °F 21.0 °F 21% 30.31 in 10.0 mi Calm Calm - N/A   Overcast
6:52 PM 59.0 °F 30.0 °F 33% 30.31 in 10.0 mi Calm Calm - N/A   Overcast
7:52 PM 57.0 °F 32.0 °F 39% 30.31 in 10.0 mi SE 3.5 mph - N/A   Overcast
8:52 PM 54.0 °F 35.1 °F 49% 30.31 in 10.0 mi Calm Calm - N/A   Overcast
9:52 PM 52.0 °F 35.1 °F 53% 30.33 in 10.0 mi Calm Calm - N/A   Overcast
10:52 PM 48.0 °F 37.0 °F 66% 30.33 in 10.0 mi South 4.6 mph - N/A   Partly Cloudy